Location: Unspecified
(43.4680°N, 87.1740°E)
Time: 20:00:45
(UTC+00:00)

Cosmos 2322 Rocket - Pass Details

Date: 17 April 2021
Orbit: 831 x 852 km, 71.0° (Epoch: 11 May)

Event Time Altitude Azimuth Distance (km) Brightness Sun altitude
Rises 13:20:10 0° 333° (NNW) 3,425 6.2 -4.9°
Reaches altitude 10° 13:22:38 10° 331° (NNW) 2,487 5.5 -5.3°
Maximum altitude 13:28:19 73° 249° (WSW) 894 2.5 -6.3°
Drops below altitude 10° 13:33:59 10° 165° (SSE) 2,472 4.3 -7.2°
Sets 13:36:26 0° 164° (SSE) 3,403 5.0 -7.6°
